パンスターズ彗星

C/2016 C1 ( PanSTARRS )

English version
Home page
Updated on May 19, 2019

---------------------------------------------------------------------

・ プロフィール

発見日 2016年2月12日
発見光度 19.9等
発見者 Pan-STARRS 1 telescope (Haleakala)

・ 写真集

・ 軌道要素

Epoch 2016 Feb. 22.0 TT = JDT 2457440.5
T 2016 Feb. 16.40726 TT                                 MPCW
q   8.4594057            (2000.0)            P               Q
z  -0.0005821      Peri.  328.57077     -0.86189320     -0.50643204
 +/-0.0000013      Node   181.78103     +0.41414759     -0.73238973
e   1.0049241      Incl.   56.17870     -0.29261217     +0.45511742
From 219 observations 2016 Feb. 12-2018 May 6, mean residual 0".5.

・ 光度変化

        m1 = -5.0 + 5 logΔ + 20 log r

---------------------------------------------------------------------

軌道要素はM.P.E.C. 2019-J142に掲載されたものです。
光度グラフはComet for Windowsで作成したものです。

---------------------------------------------------------------------

Copyright(C) Seiichi Yoshida (comet@aerith.net). All rights reserved.